Dewpoint
65 68 68 69 69 69 69 69 69 69 69 69 69 69 68 68 67 66 65 64 62 65 64 64 64 62 61 58 56 54 47 48
64 67 68 68 67 68 68 68 68 68 68 69 69 68 68 67 66 65 65 63 61 65 64 63 62 61 59 57 55 51 47 48
63 64 67 67 66 67 67 67 67 68 68 68 67 64 67 66 65 64 65 62 61 65 64 62 61 60 58 56 53 48 48 47
62 63 64 67 64 65 66 64 63 63 63 65 63 63 66 66 65 64 64 60 60 64 62 61 59 56 55 55 50 48 47 47
62 63 64 66 65 63 64 62 62 62 63 63 63 65 66 66 65 64 63 59 55 60 60 57 55 54 53 51 50 50 46 47
63 62 63 65 63 64 62 60 61 61 65 66 66 66 66 65 64 63 62 58 54 53 53 50 53 54 53 52 51 47 46 48
63 63 63 63 65 63 63 60 60 61 65 65 66 65 64 64 63 61 60 57 53 50 50 50 52 52 52 51 50 47 47 47
62 63 63 63 63 64 62 61 60 61 63 65 66 63 62 62 62 61 59 57 53 49 49 48 48 49 51 51 49 48 48 48
62 63 64 63 63 63 62 60 61 60 61 64 65 64 62 62 61 61 59 57 52 47 45 44 45 47 49 50 48 48 46 48
61 62 63 64 64 63 62 61 61 60 60 63 64 65 63 63 61 61 60 57 50 46 45 43 43 44 45 46 46 45 46 47
63 64 64 64 64 64 64 64 63 62 62 63 63 64 64 63 61 61 60 57 49 44 44 43 42 42 43 44 43 42 45 45
61 64 65 65 66 65 65 65 65 64 64 64 64 63 63 63 63 61 60 55 50 45 42 43 41 42 41 42 42 41 42 43
54 57 60 62 65 64 64 63 64 64 64 64 63 63 63 63 62 62 61 57 53 47 44 43 44 44 41 41 41 41 40 40
48 50 53 57 62 64 64 63 63 64 64 64 63 63 62 62 62 61 61 58 54 49 46 44 43 45 41 40 38 39 39 39
44 45 47 50 52 55 58 62 64 63 63 63 63 63 62 62 61 61 60 58 53 49 47 46 43 44 40 35 34 31 36 38
43 44 44 46 49 47 50 51 53 55 57 62 63 63 63 62 62 61 61 58 55 49 48 45 43 43 43 41 35 32 33 34
43 43 42 44 47 47 46 46 47 49 51 53 54 57 61 63 62 61 60 57 56 53 49 48 45 42 42 42 38 39 37 34
40 39 39 43 45 46 47 48 48 48 48 48 49 51 55 57 61 61 60 58 56 54 51 48 48 46 44 43 39 39 37 34
38 36 35 39 43 45 46 48 49 48 48 47 49 50 52 53 55 58 58 59 57 55 53 50 49 48 47 46 44 38 38 38
34 37 36 37 40 43 45 47 48 49 48 49 50 50 52 53 53 54 54 55 57 55 52 50 48 48 47 46 46 45 44 41
Wind_Speed
17 17 17 14 15 17 18 17 17 18 18 18 18 18 17 15 14 16 14 12 10 13 16 17 18 16 14 12 10 7 7 8
15 17 16 21 20 17 19 19 18 17 17 18 18 17 17 16 15 14 13 13 12 15 15 16 16 17 15 13 9 6 6 8
15 19 18 19 20 19 18 17 18 17 17 16 17 16 17 18 17 16 14 14 12 15 16 15 15 14 15 15 14 5 8 6
18 18 19 17 18 19 20 18 18 18 17 18 18 15 16 17 14 14 14 14 12 15 16 17 18 14 12 12 10 6 6 6
18 19 19 19 18 16 18 18 18 18 20 19 20 13 14 14 12 13 14 15 14 15 14 16 17 14 13 13 7 9 6 6
15 17 17 18 18 17 16 16 17 17 14 17 14 13 13 14 14 16 15 15 16 17 15 15 14 13 12 11 10 8 7 7
14 16 17 17 16 15 17 18 18 19 18 21 19 19 17 16 17 18 16 15 16 18 16 14 14 13 13 13 12 9 9 8
12 15 17 18 19 20 18 18 18 19 19 19 22 20 20 20 19 18 16 14 15 16 16 17 16 14 13 13 13 11 12 10
11 13 14 17 17 17 18 16 18 19 20 19 24 24 22 19 19 21 20 18 15 14 13 15 16 15 15 14 13 12 12 13
7 7 10 15 16 16 17 18 19 20 19 18 23 24 23 19 20 19 16 17 19 20 17 16 16 18 16 15 14 13 14 14
7 3 7 11 13 16 17 17 15 17 17 20 20 22 21 20 21 22 22 20 19 19 22 22 19 17 16 15 16 15 15 14
14 9 8 8 9 12 12 12 15 15 16 17 19 21 20 23 20 22 23 22 21 23 20 20 23 23 20 16 14 15 15 15
17 13 11 6 5 6 9 14 16 18 19 22 23 23 21 23 23 22 25 25 25 24 23 25 20 21 21 17 12 14 16 18
15 15 15 12 8 7 8 9 13 18 18 21 24 24 27 26 27 26 26 26 25 26 27 24 23 23 20 24 16 16 18 18
13 13 12 13 13 8 7 7 9 11 16 18 20 24 26 29 28 29 27 26 28 32 31 32 29 28 26 15 11 17 23 22
10 10 11 11 13 11 10 8 10 8 10 12 17 23 27 29 32 31 30 27 28 32 34 35 33 32 30 30 20 14 17 18
8 7 8 10 10 10 11 11 11 12 13 16 17 13 14 22 25 30 31 26 30 32 31 36 37 34 36 35 29 16 16 15
6 7 7 7 7 6 6 9 11 11 12 13 14 16 14 15 17 22 26 26 32 32 33 36 35 27 26 28 31 26 22 12
11 9 10 8 8 8 6 7 9 10 11 12 15 15 14 16 16 14 15 19 23 24 23 25 24 23 21 17 16 20 14 5
14 15 15 12 10 11 9 8 7 8 9 10 10 12 14 15 16 14 15 13 15 17 20 24 24 25 24 25 23 15 9 14
Wind_Direction
162 179 182 176 175 171 171 174 176 171 166 166 166 171 177 169 151 144 142 159 164 160 159 153 152 151 143 141 154 208 151 135
176 184 187 191 188 180 178 179 180 176 171 172 172 174 166 157 154 148 153 165 169 160 159 156 151 142 138 142 154 192 136 141
191 187 189 200 197 190 186 186 183 177 176 179 177 185 181 169 190 150 161 173 170 159 157 152 142 138 142 154 177 174 162 154
198 198 194 196 203 192 198 195 197 196 191 187 199 190 194 187 175 164 165 169 166 159 155 150 165 166 165 174 210 169 191 168
207 201 196 193 203 204 198 197 199 200 200 197 206 190 196 193 175 180 175 176 177 171 169 185 198 186 180 200 183 186 168 169
217 212 203 203 199 200 211 206 203 204 197 194 183 186 189 200 189 199 198 191 190 188 191 202 199 206 190 197 193 197 183 159
226 215 208 204 210 211 215 212 209 208 198 200 191 196 194 195 203 205 208 196 198 193 192 196 202 204 201 192 192 193 177 173
239 225 215 211 211 216 217 218 219 214 208 212 208 207 204 206 207 209 210 203 210 206 195 190 193 197 199 197 191 190 186 183
242 223 223 223 227 225 233 235 231 221 221 202 216 216 214 211 206 206 205 196 201 215 206 202 189 193 196 195 193 194 189 188
276 226 225 223 222 232 234 238 235 239 230 207 212 214 226 208 213 212 209 196 189 190 196 207 204 191 192 194 200 197 193 191
20 285 240 232 223 230 237 244 241 246 242 236 225 211 215 210 223 216 206 197 189 195 187 193 203 201 191 198 194 197 195 198
36 17 338 278 239 231 237 236 243 242 231 226 227 221 217 218 221 219 206 202 198 200 192 194 198 193 184 193 203 198 196 200
36 36 10 324 239 238 244 241 237 237 233 224 222 220 214 217 217 221 210 210 207 199 195 196 198 192 174 173 206 213 200 201
28 25 21 18 3 280 249 252 250 244 249 244 234 223 222 219 218 221 212 214 203 196 192 198 198 193 183 156 180 209 209 207
10 8 8 9 1 351 333 303 263 262 246 250 238 231 228 224 222 220 216 210 199 194 193 195 199 198 194 179 171 217 184 195
9 8 14 15 9 4 355 340 330 325 331 302 273 246 231 225 223 221 219 207 208 201 198 202 205 196 207 215 217 210 184 182
349 353 6 7 4 2 357 356 345 331 323 319 311 310 300 259 238 226 226 212 214 210 208 209 205 207 203 198 205 214 199 187
312 308 317 331 335 340 354 349 343 340 340 330 325 316 305 298 262 240 240 226 218 212 211 212 213 220 210 214 200 187 200 170
312 294 293 286 286 296 307 323 326 327 332 333 327 324 318 311 309 298 259 241 228 230 214 213 219 218 222 220 251 205 163 126
317 298 289 286 276 276 282 287 292 304 313 317 314 315 310 307 304 299 288 286 265 221 212 206 202 202 198 191 192 205 182 145